#timestamp,LO_Frequency,Hit,StdDev 
1691719215.9,286046999.9,N
1691719235.7,286047002.2,N
1691719255.5,286047002.0,N
1691719275.4,286047000.1,N
1691719295.2,286047002.7,N
1691719315.0,286047000.9,N
1691719315.9,286047000.9,N
1691719335.8,286047000.0,N
1691719355.6,286047000.4,N
1691719375.5,286047001.1,N
1691719395.3,286047000.7,N
1691719415.1,286046998.1,N
1691719435.9,286046998.1,N
1691719455.7,286046998.9,N
1691719475.5,286046998.9,N
1691719495.4,286046999.2,N
1691719515.2,286046998.8,N
1691719535.1,286046999.3,N
1691719536.0,286046999.3,N
1691719555.8,286046996.6,N
1691719575.6,286046996.9,N
1691719595.5,286046999.4,N
1691719615.3,286046998.7,N
1691719635.1,286046998.9,N
1691719655.9,286046999.3,N
1691719675.7,286046997.3,N
1691719695.6,286046996.6,N
1691719715.4,286046997.7,N
1691719735.2,286046997.2,N
1691719755.1,286046997.5,N
1691719756.0,286046997.5,N
1691719775.8,286046998.0,N
1691719795.7,286046995.5,N
1691719815.5,286046995.0,Y
1691719835.4,286046997.3,P
1691719855.2,286046997.6,P
1691719875.0,286046997.1,P
1691719875.9,286046997.1,Y
1691719895.8,286047000.7,P
1691719915.6,286046998.8,N
1691719935.4,286046999.5,N
1691719955.3,286046998.9,N
1691719975.1,286046998.8,N
1691719995.9,286046999.3,N
1691720015.7,286046999.3,N
1691720035.5,286046999.1,N
1691720055.4,286046999.4,N
1691720075.2,286046996.5,Y
1691720095.1,286046998.5,P
1691720096.0,286046998.5,P
1691720115.8,286046999.4,N
1691720135.6,286046996.6,Y
1691720155.5,286046996.6,P
1691720175.3,286046996.7,N
1691720195.2,286046996.7,P
1691720215.9,286046997.1,Y
1691720235.7,286047000.4,P
1691720255.6,286047000.9,N
1691720275.4,286047000.8,N
1691720295.3,286047000.3,N
1691720315.1,286046999.7,N
1691720316.0,286046999.7,N
1691720335.8,286047000.4,N
1691720355.7,286047002.4,N
1691720375.5,286047000.1,N
1691720395.4,286046999.9,N
1691720415.2,286047000.1,N
1691720435.0,286047002.7,N
1691720435.9,286047002.7,N
1691720455.8,286047002.1,N
1691720475.6,286047002.4,N
1691720495.4,286046999.9,N
1691720515.3,286047000.0,N
1691720535.1,286047000.8,N
1691720555.9,286047000.7,N
1691720575.7,286047000.4,N
1691720595.5,286047000.6,N
1691720615.4,286047001.2,N
1691720635.2,286047000.8,N
1691720655.0,286046999.9,N
1691720655.9,286046999.9,N
1691720675.8,286047000.3,N
1691720695.6,286046999.9,N
1691720715.5,286047002.4,N
1691720735.3,286047000.3,N
1691720755.1,286047000.3,N
1691720775.9,286046999.8,N
1691720795.7,286046999.7,N
1691720815.6,286047000.1,N
1691720835.4,286047000.1,N
1691720855.2,286047001.2,N
1691720875.1,286047000.7,N
1691720876.0,286047000.7,N
1691720895.8,286047000.7,N
1691720915.6,286046998.5,N
1691720935.5,286046998.5,N
1691720955.3,286046998.5,N
1691720975.2,286047000.8,N
1691720995.9,286047001.2,N
1691721015.7,286046998.6,N
1691721035.6,286046999.1,N
1691721055.4,286047001.2,N
1691721075.2,286046998.7,N
1691721095.1,286047001.1,N
1691721096.0,286047001.1,N
1691721115.8,286046998.6,N
1691721135.7,286046999.4,N
1691721155.5,286046999.0,N
1691721175.3,286046998.8,N
1691721195.2,286046999.4,N
1691721215.0,286046996.6,Y
1691721215.9,286046996.6,P
1691721235.8,286046999.0,N
1691721255.6,286046999.1,N
1691721275.4,286046996.9,N
1691721295.3,286046999.5,N
1691721315.1,286046999.4,N
1691721335.8,286046999.1,N
1691721355.7,286046998.5,N
1691721375.5,286046998.7,N
1691721395.4,286046999.1,N
1691721415.2,286046996.5,Y
1691721435.0,286046998.9,P
1691721435.9,286046998.9,P
1691721455.8,286047001.0,P
1691721475.6,286047001.1,N
1691721495.4,286047001.2,N
1691721515.3,286046998.7,N
1691721535.1,286047001.2,N
1691721555.9,286047000.2,N
1691721575.7,286047000.9,N
1691721595.5,286047000.9,N
1691721615.4,286047000.0,N
1691721635.2,286047000.4,N
1691721655.0,286047000.6,N
1691721655.9,286047000.6,N
1691721675.8,286047001.1,N
1691721695.6,286047000.1,N
1691721715.5,286047000.3,N
1691721735.3,286047000.0,N
1691721755.1,286047001.1,N
1691721775.9,286047000.8,N
1691721795.7,286046999.8,N
1691721815.5,286047001.0,N
1691721835.4,286046999.9,N
1691721855.2,286047000.6,N
1691721875.1,286047001.1,N
1691721876.0,286047001.1,N
1691721895.8,286047000.9,N
1691721915.6,286046998.1,N
1691721935.5,286047000.4,N
1691721955.3,286047001.2,N
1691721975.1,286046998.2,N
1691721995.9,286046998.8,N
1691722015.7,286046998.8,N
1691722035.6,286046998.8,N
1691722055.4,286046999.5,N
1691722075.2,286046998.8,N
1691722095.1,286046999.3,N
1691722096.0,286046999.3,N
1691722115.8,286046999.3,N
1691722135.7,286046999.2,N
1691722155.5,286046999.4,N
1691722175.3,286046999.0,N
1691722195.2,286046999.6,N
1691722215.9,286046999.2,N
1691722235.7,286046998.7,N
1691722255.6,286046999.2,N
1691722275.4,286046998.9,N
1691722295.3,286046998.3,N
1691722315.1,286046998.4,N
1691722335.8,286046998.3,N
1691722355.7,286046998.1,N
1691722375.5,286046998.6,N
1691722395.4,286046998.7,N
1691722415.2,286046998.6,N
1691722435.0,286046998.1,N
1691722435.9,286046998.1,N
1691722455.8,286047001.2,N
1691722475.6,286046998.6,N
1691722495.5,286046998.3,N
1691722515.3,286047001.2,N
1691722535.1,286047001.1,N
1691722555.9,286047000.4,N
1691722575.7,286046999.8,N
1691722595.6,286047002.4,N
1691722615.4,286047000.1,N
1691722635.2,286046999.8,N
1691722655.1,286047002.7,N
1691722656.0,286047002.7,N
1691722675.8,286047002.8,N
1691722695.7,286047002.5,N
1691722715.5,286047002.2,N
1691722735.3,286047002.6,N
1691722755.2,286047002.4,N
1691722775.9,286047002.8,N
1691722795.7,286047002.7,N
